Miami, FL

9:42 PM EST on December 15, 2019 (GMT -0500)
Miami International

Weather History for KMIA - October, 2019

Change the Weather History Date:

Friday, October 18, 2019

  Actual Average Record
Temperature  
Mean Temperature 84 °F 80 °F  
Max Temperature 89 °F 86 °F 90 °F (1989)
Min Temperature 78 °F 73 °F 58 °F (1927)
Degree Days  
Heating Degree Days 0 0  
Month to date heating degree days 0 0  
Since 1 July heating degree days 0 0  
Cooling Degree Days 19 15  
Month to date cooling degree days 327 287  
Year to date cooling degree days 4418 3899  
Growing Degree Days 34 (Base 50)    
Moisture  
Dew Point 74 °F    
Average Humidity 72    
Maximum Humidity 85    
Minimum Humidity 59    
Precipitation  
Precipitation T in 0.17 in 9.48 in (1924)
Month to date precipitation 3.17 4.33  
Year to date precipitation 58.34 54.59  
Snow  
Snow 0.00 in - - ()
Month to date snowfall 0.0  
Since 1 July snowfall 0.0  
Since 1 September snowfall 0.0  
Snow Depth 0.00 in    
Sea Level Pressure  
Sea Level Pressure 29.91 in    
Wind  
Wind Speed 6 mph (SSE)    
Max Wind Speed 14 mph    
Max Gust Speed 20 mph    
Visibility 10 miles    
Events      
T = Trace of Precipitation, MM = Missing Value Source: NWS Daily Summary

Daily Weather History Graph

Daily Weather History Graph

Search for Another Location

Airport or City:

Astronomy

Oct. 18, 2019 Rise Set
Actual Time 7:21 AM EDT 6:50 PM EDT
Civil Twilight 6:58 AM EDT 7:14 PM EDT
Nautical Twilight 6:31 AM EDT 7:40 PM EDT
Astronomical Twilight 6:04 AM EDT 8:07 PM EDT
Moon 10:28 PM EDT (10/18) 11:31 AM EDT (10/18)
Length of Visible Light 12h 16m
Length of Day
11h 29m
Waning Gibbous, 79% of the Moon is Illuminated
Oct 18
Waning Gibbous
Oct 21
Last Quarter
Oct 27
New
Nov 4
First Quarter
Nov 12
Full

Hourly Weather History & Observations

Time (EDT) Temp. Heat Index Dew Point Humidity Pressure Visibility Wind Dir Wind Speed Gust Speed Precip Events Conditions
12:53 AM 82.0 °F 87.9 °F 73.9 °F 76% 29.93 in 10.0 mi WSW 5.8 mph - N/A   Overcast
1:53 AM 81.0 °F 86.7 °F 75.0 °F 82% 29.91 in 10.0 mi West 4.6 mph - N/A   Scattered Clouds
2:53 AM 81.0 °F 86.7 °F 75.0 °F 82% 29.91 in 10.0 mi Calm Calm - N/A   Partly Cloudy
3:53 AM 80.1 °F 85.1 °F 75.0 °F 85% 29.90 in 10.0 mi WSW 3.5 mph - N/A   Mostly Cloudy
4:53 AM 80.1 °F 85.1 °F 75.0 °F 85% 29.88 in 10.0 mi Calm Calm - N/A   Mostly Cloudy
5:53 AM 80.1 °F 85.1 °F 75.0 °F 85% 29.89 in 10.0 mi Calm Calm - N/A   Scattered Clouds
6:53 AM 79.0 °F - 73.9 °F 84% 29.90 in 10.0 mi Calm Calm - N/A   Scattered Clouds
7:53 AM 81.0 °F 86.7 °F 75.0 °F 82% 29.92 in 10.0 mi Calm Calm - N/A   Scattered Clouds
8:53 AM 82.9 °F 90.8 °F 75.9 °F 79% 29.93 in 10.0 mi ESE 3.5 mph - N/A   Scattered Clouds
9:53 AM 84.9 °F 91.4 °F 73.0 °F 67% 29.95 in 10.0 mi Calm Calm - N/A   Scattered Clouds
10:39 AM 87.1 °F 96.3 °F 75.0 °F 67% 29.94 in 10.0 mi ESE 4.6 mph - N/A   Mostly Cloudy
10:53 AM 87.1 °F 95.4 °F 73.9 °F 65% 29.95 in 10.0 mi Variable 3.5 mph - N/A   Mostly Cloudy
10:58 AM 87.1 °F 95.4 °F 73.9 °F 65% 29.94 in 10.0 mi South 3.5 mph - N/A   Scattered Clouds
11:53 AM 88.0 °F 95.6 °F 73.0 °F 61% 29.94 in 10.0 mi SE 6.9 mph - N/A   Mostly Cloudy
12:53 PM 88.0 °F 94.7 °F 72.0 °F 59% 29.92 in 10.0 mi Variable 5.8 mph 17.3 mph 0.00 in   Overcast
1:53 PM 88.0 °F 93.8 °F 71.1 °F 57% 29.89 in 10.0 mi SE 10.4 mph - N/A   Overcast
2:53 PM 88.0 °F 95.6 °F 73.0 °F 61% 29.88 in 10.0 mi SE 8.1 mph - N/A   Overcast
3:53 PM 86.0 °F 93.0 °F 73.0 °F 65% 29.88 in 10.0 mi ESE 9.2 mph - N/A   Overcast
4:53 PM 84.0 °F 91.9 °F 75.0 °F 74% 29.87 in 10.0 mi SE 9.2 mph - N/A   Overcast
5:53 PM 84.0 °F 91.2 °F 73.9 °F 72% 29.88 in 10.0 mi SE 11.5 mph 18.4 mph N/A   Overcast
6:53 PM 82.9 °F 88.8 °F 73.0 °F 72% 29.88 in 10.0 mi Variable 5.8 mph - N/A   Overcast
7:53 PM 82.9 °F 89.4 °F 73.9 °F 74% 29.90 in 10.0 mi South 6.9 mph - N/A   Overcast
8:53 PM 82.9 °F 89.4 °F 73.9 °F 74% 29.90 in 10.0 mi SE 5.8 mph - N/A   Overcast
9:53 PM 82.9 °F 89.4 °F 73.9 °F 74% 29.90 in 10.0 mi SE 6.9 mph - N/A   Overcast
10:53 PM 82.9 °F 89.4 °F 73.9 °F 74% 29.91 in 10.0 mi SE 6.9 mph - N/A   Overcast
11:53 PM 82.9 °F 89.4 °F 73.9 °F 74% 29.90 in 10.0 mi ESE 11.5 mph - N/A   Overcast